Weather History for Aspen, CO

Change the Weather History Date:

Friday, May 24, 2013

  Actual Average Record
Temperature  
Mean Temperature 54 °F 51 °F  
Max Temperature 70 °F 66 °F 78 °F (2005)
Min Temperature 38 °F 36 °F 30 °F (1998)
Degree Days  
Heating Degree Days 11 14  
Month to date heating degree days 430 422  
Since 1 July heating degree days 8341 8552  
Cooling Degree Days 0 0  
Month to date cooling degree days 0 0  
Year to date cooling degree days 0 0  
Growing Degree Days 6 (Base 50)    
Moisture  
Dew Point 21 °F    
Average Humidity 29    
Maximum Humidity 45    
Minimum Humidity 12    
Precipitation  
Precipitation 0.00 in 0.04 in 0.20 in (2011)
Month to date precipitation 1.88 1.29  
Year to date precipitation 6.49 6.69  
Sea Level Pressure  
Sea Level Pressure 29.81 in    
Wind  
Wind Speed 7 mph (SSW)    
Max Wind Speed 22 mph    
Max Gust Speed 30 mph    
Visibility 10 miles    
Events      
T = Trace of Precipitation, MM = Missing Value Source: NWS Daily Summary

Daily Weather History Graph

Daily Weather History Graph

Search for Another Location

Airport:

Trip Planner

Search our weather history database for the weather conditions in past years. The results will help you decide how hot, cold, wet, or windy it might be!

Date:

Astronomy

May. 24, 2013 Rise Set
Actual Time 5:47 AM MDT 8:22 PM MDT
Civil Twilight 5:16 AM MDT 8:53 PM MDT
Nautical Twilight 4:37 AM MDT 9:31 PM MDT
Astronomical Twilight 3:54 AM MDT 10:15 PM MDT
Moon 8:07 PM MDT (5/24) 5:21 AM MDT (5/24)
Length of Visible Light 15h 37m
Length of Day
14h 35m
Full, 100% of the Moon is Illuminated
May 24
Full
May 24
Full
May 31
Last Quarter
Jun 8
New
Jun 16
First Quarter

Hourly Weather History & Observations

Time (MDT) Temp. Windchill Dew Point Humidity Pressure Visibility Wind Dir Wind Speed Gust Speed Precip Events Conditions
12:53 AM 48.9 °F - 24.1 °F 38% 29.72 in 10.0 mi Calm Calm - N/A   Clear
1:53 AM 46.9 °F - 21.9 °F 37% 29.72 in 10.0 mi South 5.8 mph - N/A   Clear
2:53 AM 42.1 °F 37.7 °F 23.0 °F 47% 29.74 in 10.0 mi SSW 6.9 mph - N/A   Clear
3:53 AM 46.0 °F - 21.0 °F 37% 29.74 in 10.0 mi Calm Calm - N/A   Clear
4:53 AM 41.0 °F 38.0 °F 21.9 °F 47% 29.79 in 10.0 mi SSW 4.6 mph - N/A   Clear
5:53 AM 42.1 °F 40.2 °F 21.9 °F 45% 29.82 in 10.0 mi South 3.5 mph - N/A   Clear
6:53 AM 45.0 °F 43.5 °F 23.0 °F 42% 29.84 in 10.0 mi SSE 3.5 mph - N/A   Clear
7:53 AM 51.1 °F - 21.9 °F 32% 29.82 in 10.0 mi Calm Calm - N/A   Clear
8:53 AM 59.0 °F - 25.0 °F 27% 29.81 in 10.0 mi North 3.5 mph - N/A   Clear
9:53 AM 64.0 °F - 12.0 °F 13% 29.81 in 10.0 mi South 13.8 mph 23.0 mph N/A   Clear
10:53 AM 66.0 °F - 14.0 °F 13% 29.81 in 10.0 mi SSW 11.5 mph 26.5 mph N/A   Clear
11:53 AM 66.9 °F - 12.9 °F 12% 29.82 in 10.0 mi SSW 11.5 mph 24.2 mph N/A   Clear
12:53 PM 68.0 °F - 15.1 °F 13% 29.80 in 10.0 mi WSW 13.8 mph 23.0 mph N/A   Clear
1:53 PM 70.0 °F - 18.0 °F 14% 29.80 in 10.0 mi West 9.2 mph 20.7 mph N/A   Partly Cloudy
2:53 PM 70.0 °F - 19.0 °F 14% 29.83 in 10.0 mi SW 10.4 mph 25.3 mph N/A   Partly Cloudy
3:53 PM 68.0 °F - 21.0 °F 17% 29.82 in 10.0 mi West 8.1 mph 18.4 mph N/A   Partly Cloudy
4:53 PM 68.0 °F - 18.0 °F 15% 29.83 in 10.0 mi SSW 6.9 mph - N/A   Scattered Clouds
5:53 PM 68.0 °F - 19.0 °F 15% 29.83 in 10.0 mi Variable 3.5 mph - N/A   Partly Cloudy
6:53 PM 66.9 °F - 19.0 °F 16% 29.82 in 10.0 mi Variable 4.6 mph - N/A   Partly Cloudy
7:53 PM 57.9 °F - 24.1 °F 27% 29.84 in 10.0 mi SW 6.9 mph - N/A   Clear
8:53 PM 55.0 °F - 26.1 °F 33% 29.85 in 10.0 mi South 9.2 mph - N/A   Clear
9:53 PM 52.0 °F - 25.0 °F 35% 29.85 in 10.0 mi SSW 8.1 mph - N/A   Clear
10:53 PM 48.0 °F - 25.0 °F 41% 29.87 in 10.0 mi South 8.1 mph - N/A   Clear
11:53 PM 46.9 °F - 24.1 °F 41% 29.86 in 10.0 mi South 6.9 mph - N/A   Clear